Terminal Aerodrome Forecast
Issued by NWS Columbia, SC

Home | Current Version | Previous Version | Text Only | Print | Product List | Glossary On
Versions: 1 2 3 4 5 6 7 8 9 10 11 12 13 14 15 16 17 18 19 20 21 22 23 24 25 26 27 28 29
000
FTUS42 KCAE 010500 CCA
TAFCAE
TAF COR
KCAE 010548Z 0106/0206 05004KT P6SM OVC008
      TEMPO 0106/0109 SCT008 OVC012
     FM011400 07005KT P6SM OVC015
     FM011700 05006KT P6SM VCSH SCT025 OVC050=

USA.gov is the U.S. government's official web portal to all federal, state and local government web resources and services.